Regional Weather Roundup
Issued by NWS Sioux Falls, SD

Home | Current Version | Previous Version | Text Only | Print | Product List | Glossary On
Versions: 1 2 3 4 5 6 7 8 9 10 11 12 13 14 15 16 17 18 19 20 21 22 23 24 25 26 27 28 29 30 31 32 33 34 35 36 37 38 39 40 41 42 43 44 45 46 47 48 49 50
000
ASUS43 KFSD 271202
RWRFSD

WEATHER ROUNDUP FOR SE SOUTH DAKOTA/SW MINNESOTA/NW IOWA
NATIONAL WEATHER SERVICE SIOUX FALLS SD
700 AM CDT MON JUL 27 2015

NOTE: "FAIR" INDICATES FEW OR NO CLOUDS BELOW 12,000 FEET WITH NO
SIGNIFICANT WEATHER AND OR OBSTRUCTIONS TO VISIBILITY.


SDZ038>040-050-052>070-271300-
SOUTHEAST SOUTH DAKOTA

CITY           SKY/WX    TMP DP  RH WIND       PRES   REMARKS
BROOKINGS      CLOUDY    72  66  83 SE9       29.94R
CHAMBERLAIN    NOT AVBL
HURON          MOCLDY    70  69  97 E7        29.86F
6HR MIN TEMP:  69; 6HR MAX TEMP:  72;

MADISON        CLOUDY    68  68 100 E7        29.93R
MITCHELL       CLOUDY    72  71  97 SE3       29.88R FOG
6HR MIN TEMP:  72; 6HR MAX TEMP:  74;

SIOUX FALLS    CLOUDY    74  71  91 E7        29.88F
6HR MIN TEMP:  73; 6HR MAX TEMP:  75;

WINNER         FAIR      67  61  81 SE8       29.88R
YANKTON        CLOUDY    72  64  78 E5        29.86R
$$

MNZ071-072-080-081-089-090-097-098-271300-
SOUTHWEST MINNESOTA

CITY           SKY/WX    TMP DP  RH WIND       PRES   REMARKS
FAIRMONT       CLOUDY    72  64  78 SE6       29.94R VSB 1/2
JACKSON        FOG       72  72 100 SE7       29.95S VSB<1/4
LUVERNE        CLOUDY    73  70  88 E3        29.92S
MARSHALL       MOCLDY    68  64  88 SE5       29.93R
6HR MIN TEMP:  66; 6HR MAX TEMP:  70;

MONTEVIDEO     FOG       70  70 100 SE3       29.94R VSB 1
PIPESTONE      CLOUDY    72  70  94 SE5       29.93S
REDWOOD FALLS  FOG       71  70  96 SE6       29.93R VSB 3/4
WINDOM         FOG       72  72 100 CALM      29.94R VSB 1/2
WORTHINGTON    CLOUDY    70  66  88 SE5       29.94S
$$

IAZ001>003-012>014-020>022-031-032-NEZ013-014-SDZ071-271300-
NORTHWEST IOWA

CITY           SKY/WX    TMP DP  RH WIND       PRES   REMARKS
DENISON        MOCLDY    75  73  94 E5        29.90R
ESTHERVILLE    CLOUDY    71  71 100 E7        29.93R FOG
SIOUX CITY     LGT RAIN  72  68  87 SE12      29.88F
6HR MIN TEMP:  71; 6HR MAX TEMP:  78; 6HR PCP:  0.39;

SPENCER        LGT RAIN  74  71  91 SE6       29.94R FOG
6HR MIN TEMP:  72; 6HR MAX TEMP:  74; 6HR PCP: TRACE;

$$

ABBREVIATIONS USED IN REMARKS
   TC - TEMPERATURE IN CELSIUS
  WCI - WIND CHILL INDEX
   HX - HEAT INDEX
  VSB - VISIBILITY




USA.gov is the U.S. government's official web portal to all federal, state and local government web resources and services.